Weather History for Ketchikan, AK

Change the Weather History Date:

Wednesday, October 2, 2013

  Actual Average Record
Temperature  
Mean Temperature 50 °F -  
Max Temperature 57 °F 56 °F 67 °F (1987)
Min Temperature 43 °F 43 °F 30 °F (2000)
Degree Days  
Heating Degree Days 15    
Moisture  
Dew Point 46 °F    
Average Humidity 93    
Maximum Humidity 100    
Minimum Humidity 72    
Precipitation  
Precipitation 0.01 in - - ()
Sea Level Pressure  
Sea Level Pressure 30.12 in    
Wind  
Wind Speed 2 mph (SSE)    
Max Wind Speed 8 mph    
Max Gust Speed -    
Visibility 10 miles    
Events Rain    
Averages and records for this station are not official NWS values.
T = Trace of Precipitation, MM = Missing Value Source: NWS Daily Summary

Daily Weather History Graph

Daily Weather History Graph

Search for Another Location

Airport:

Trip Planner

Search our weather history database for the weather conditions in past years. The results will help you decide how hot, cold, wet, or windy it might be!

Date:

Astronomy

Oct. 02, 2013 Rise Set
Actual Time 6:52 AM AKDT 6:18 PM AKDT
Civil Twilight 6:15 AM AKDT 6:55 PM AKDT
Nautical Twilight 5:33 AM AKDT 7:37 PM AKDT
Astronomical Twilight 4:49 AM AKDT 8:21 PM AKDT
Moon 4:14 AM AKDT (10/2) 5:10 PM AKDT (10/2)
Length of Visible Light 12h 39m
Length of Day
11h 26m
Waning Crescent, 5% of the Moon is Illuminated
Oct 2
Waning Crescent
Oct 4
New
Oct 11
First Quarter
Oct 18
Full
Oct 26
Last Quarter

Hourly Weather History & Observations

Time (AKDT) Temp. Windchill Dew Point Humidity Pressure Visibility Wind Dir Wind Speed Gust Speed Precip Events Conditions
12:53 AM 45.0 °F - 45.0 °F 100% 29.99 in 10.0 mi Calm Calm - N/A   Scattered Clouds
1:33 AM 44.6 °F - 44.6 °F 100% 30.00 in 10.0 mi Calm Calm - N/A   Overcast
1:53 AM 45.0 °F - 45.0 °F 100% 30.01 in 10.0 mi Calm Calm - N/A   Overcast
2:53 AM 46.0 °F 44.8 °F 46.0 °F 100% 30.01 in 10.0 mi SE 3.5 mph - N/A   Mostly Cloudy
3:53 AM 46.0 °F - 46.0 °F 100% 30.03 in 10.0 mi Calm Calm - 0.00 in Rain Light Rain
4:53 AM 45.0 °F - 45.0 °F 100% 30.05 in 10.0 mi Calm Calm - 0.00 in   Overcast
5:53 AM 44.1 °F - 44.1 °F 100% 30.06 in 10.0 mi Calm Calm - 0.00 in   Overcast
6:53 AM 44.1 °F 42.5 °F 44.1 °F 100% 30.08 in 10.0 mi SSW 3.5 mph - N/A   Mostly Cloudy
7:53 AM 45.0 °F - 45.0 °F 100% 30.09 in 10.0 mi Calm Calm - 0.01 in   Scattered Clouds
8:53 AM 48.0 °F - 48.0 °F 100% 30.12 in 10.0 mi Calm Calm - N/A   Scattered Clouds
9:53 AM 48.9 °F - 48.0 °F 97% 30.13 in 10.0 mi Calm Calm - N/A   Mostly Cloudy
9:57 AM 50.0 °F - 48.2 °F 94% 30.13 in 10.0 mi Calm Calm - N/A   Partly Cloudy
10:53 AM 53.1 °F - 48.0 °F 83% 30.13 in 10.0 mi North 3.5 mph - N/A   Partly Cloudy
11:53 AM 55.0 °F - 46.0 °F 72% 30.14 in 10.0 mi North 5.8 mph - N/A   Partly Cloudy
12:53 PM 55.0 °F - 48.0 °F 77% 30.14 in 10.0 mi NNW 6.9 mph - N/A   Scattered Clouds
1:53 PM 57.0 °F - 48.0 °F 72% 30.15 in 10.0 mi NNW 6.9 mph - N/A   Scattered Clouds
2:53 PM 55.9 °F - 48.0 °F 75% 30.16 in 10.0 mi NW 8.1 mph - N/A   Clear
3:53 PM 55.0 °F - 46.9 °F 74% 30.16 in 10.0 mi NW 4.6 mph - N/A   Clear
4:53 PM 53.1 °F - 46.9 °F 80% 30.16 in 10.0 mi SSE 4.6 mph - N/A   Clear
5:53 PM 48.9 °F - 46.9 °F 93% 30.17 in 10.0 mi SSW 4.6 mph - N/A   Clear
6:53 PM 48.0 °F - 46.9 °F 96% 30.18 in 10.0 mi SE 4.6 mph - N/A   Clear
7:53 PM 46.0 °F 43.9 °F 46.0 °F 100% 30.19 in 10.0 mi South 4.6 mph - N/A   Clear
8:53 PM 43.0 °F - 43.0 °F 100% 30.19 in 10.0 mi Calm Calm - N/A   Clear
9:53 PM 45.0 °F 42.6 °F 45.0 °F 100% 30.19 in 10.0 mi SSE 4.6 mph - N/A   Clear
10:53 PM 43.0 °F 41.3 °F 43.0 °F 100% 30.19 in 10.0 mi SE 3.5 mph - N/A   Clear
11:40 PM 44.6 °F 42.2 °F 44.6 °F 100% 30.19 in 10.0 mi SE 4.6 mph - N/A   Mostly Cloudy
11:50 PM 44.6 °F 43.1 °F 44.6 °F 100% 30.19 in 10.0 mi ESE 3.5 mph - N/A   Overcast
11:53 PM 45.0 °F - 45.0 °F 100% 30.19 in 10.0 mi Calm Calm - N/A   Overcast